When you browse on this site, cookies collect data to enhance your experience and personalize the content and advertising you see.
Visit our Privacy Policy to learn more. By continuing to use the site, you agree to this use of cookies and data.
EN

Hourly Weather Martyuhi

Today, 5 August, Wednesday

Time Temperature Precipitation Wind Pressure Humidity
00:00 +14°C° 0 mm 3 mps 739 mmHg 92%
01:00 +14°C° 0 mm 3 mps 740 mmHg 91%
02:00 +14°C° 0 mm 3 mps 740 mmHg 90%
03:00 +14°C° 0 mm 3 mps 740 mmHg 89%
04:00 +14°C° 0 mm 3 mps 739 mmHg 89%
05:00 +14°C° 0 mm 3 mps 739 mmHg 88%
06:00 +16°C° 0 mm 3 mps 739 mmHg 84%
07:00 +18°C° 0 mm 3 mps 740 mmHg 80%
08:00 +19°C° 0 mm 3 mps 740 mmHg 76%
09:00 +21°C° 0 mm 3 mps 740 mmHg 71%
10:00 +22°C° 0 mm 4 mps 740 mmHg 67%
11:00 +25°C° 0 mm 4 mps 740 mmHg 62%
12:00 +25°C° 0 mm 4 mps 740 mmHg 60%
13:00 +26°C° 0 mm 4 mps 740 mmHg 59%
14:00 +27°C° 0 mm 4 mps 740 mmHg 57%
15:00 +26°C° 0 mm 3 mps 740 mmHg 61%
16:00 +26°C° 0 mm 2 mps 740 mmHg 65%
17:00 +26°C° 0 mm 2 mps 740 mmHg 69%
18:00 +24°C° 0 mm 2 mps 740 mmHg 75%
19:00 +21°C° 0 mm 2 mps 740 mmHg 80%
20:00 +21°C° 0 mm 1 mps 740 mmHg 85%
21:00 +19°C° 0 mm 2 mps 741 mmHg 87%
22:00 +19°C° 0 mm 2 mps 741 mmHg 89%
23:00 +18°C° 0 mm 2 mps 741 mmHg 91%

Tomorrow, 6 August, Thursday

Time Temperature Precipitation Wind Pressure Humidity
00:00 +18°C° 0 mm 2 mps 741 mmHg 91%
01:00 +18°C° 0 mm 2 mps 741 mmHg 92%
02:00 +17°C° 0 mm 2 mps 741 mmHg 92%
03:00 +17°C° 0.9 mm 2 mps 741 mmHg 94%
04:00 +19°C° 0.9 mm 1 mps 742 mmHg 95%
05:00 +19°C° 0.9 mm 1 mps 742 mmHg 97%
06:00 +20°C° 0.2 mm 1 mps 742 mmHg 95%
07:00 +21°C° 0.2 mm 1 mps 742 mmHg 92%
08:00 +22°C° 0.2 mm 1 mps 743 mmHg 90%
09:00 +21°C° 0.5 mm 2 mps 743 mmHg 88%
10:00 +23°C° 0.5 mm 2 mps 743 mmHg 86%
11:00 +24°C° 0.5 mm 3 mps 743 mmHg 84%
12:00 +24°C° 0.3 mm 3 mps 743 mmHg 78%
13:00 +25°C° 0.3 mm 3 mps 743 mmHg 73%
14:00 +25°C° 0.3 mm 4 mps 743 mmHg 68%
15:00 +25°C° 0 mm 3 mps 743 mmHg 68%
16:00 +25°C° 0 mm 3 mps 743 mmHg 68%
17:00 +24°C° 0 mm 2 mps 743 mmHg 67%
18:00 +21°C° 0 mm 2 mps 743 mmHg 71%
19:00 +19°C° 0 mm 2 mps 743 mmHg 75%
20:00 +17°C° 0 mm 2 mps 744 mmHg 79%
21:00 +17°C° 0 mm 2 mps 744 mmHg 80%
22:00 +16°C° 0 mm 2 mps 744 mmHg 82%
23:00 +15°C° 0 mm 2 mps 744 mmHg 83%

Day after tomorrow, 7 August, Friday

Time Temperature Precipitation Wind Pressure Humidity
00:00 +15°C° 0 mm 2 mps 744 mmHg 84%
01:00 +14°C° 0 mm 2 mps 745 mmHg 86%
02:00 +14°C° 0 mm 2 mps 745 mmHg 87%
03:00 +14°C° 0 mm 2 mps 745 mmHg 88%
04:00 +14°C° 0 mm 2 mps 745 mmHg 88%
05:00 +14°C° 0 mm 2 mps 745 mmHg 89%
06:00 +15°C° 0 mm 2 mps 745 mmHg 84%
07:00 +17°C° 0 mm 2 mps 746 mmHg 79%
08:00 +18°C° 0 mm 2 mps 746 mmHg 74%
09:00 +20°C° 0 mm 2 mps 746 mmHg 69%
10:00 +21°C° 0 mm 3 mps 746 mmHg 64%
11:00 +22°C° 0 mm 3 mps 746 mmHg 58%
12:00 +22°C° 0 mm 3 mps 746 mmHg 58%
13:00 +24°C° 0 mm 3 mps 746 mmHg 58%
14:00 +24°C° 0 mm 2 mps 746 mmHg 57%
15:00 +24°C° 0 mm 2 mps 745 mmHg 60%
16:00 +24°C° 0 mm 2 mps 745 mmHg 64%
17:00 +23°C° 0 mm 2 mps 745 mmHg 67%
18:00 +21°C° 0 mm 2 mps 745 mmHg 73%
19:00 +20°C° 0 mm 1 mps 745 mmHg 79%
20:00 +18°C° 0 mm 1 mps 745 mmHg 85%
21:00 +18°C° 0 mm 1 mps 745 mmHg 87%
22:00 +16°C° 0 mm 1 mps 745 mmHg 89%
23:00 +15°C° 0 mm 1 mps 745 mmHg 91%

8 August, Saturday

Time Temperature Precipitation Wind Pressure Humidity
00:00 +15°C° 0 mm 1 mps 745 mmHg 92%
01:00 +15°C° 0 mm 1 mps 745 mmHg 92%
02:00 +14°C° 0 mm 1 mps 745 mmHg 93%
03:00 +14°C° 0 mm 1 mps 745 mmHg 92%
04:00 +14°C° 0 mm 1 mps 745 mmHg 91%
05:00 +14°C° 0 mm 1 mps 745 mmHg 90%
06:00 +16°C° 0 mm 1 mps 745 mmHg 84%
07:00 +19°C° 0 mm 1 mps 745 mmHg 77%
08:00 +21°C° 0 mm 1 mps 745 mmHg 70%
09:00 +22°C° 0 mm 1 mps 745 mmHg 66%
10:00 +23°C° 0 mm 1 mps 744 mmHg 62%
11:00 +24°C° 0 mm 1 mps 744 mmHg 58%
12:00 +24°C° 0.1 mm 1 mps 744 mmHg 57%
13:00 +25°C° 0.1 mm 1 mps 743 mmHg 57%
14:00 +25°C° 0.1 mm 1 mps 743 mmHg 57%
15:00 +25°C° 0 mm 1 mps 743 mmHg 60%
16:00 +24°C° 0 mm 1 mps 742 mmHg 63%
17:00 +24°C° 0 mm 1 mps 742 mmHg 65%
18:00 +22°C° 0 mm 1 mps 742 mmHg 72%
19:00 +20°C° 0 mm 1 mps 742 mmHg 79%
20:00 +18°C° 0 mm 1 mps 741 mmHg 85%
21:00 +18°C° 0 mm 1 mps 741 mmHg 87%
22:00 +16°C° 0 mm 1 mps 741 mmHg 89%
23:00 +16°C° 0 mm 1 mps 741 mmHg 91%

9 August, Sunday

Time Temperature Precipitation Wind Pressure Humidity
00:00 +16°C° 0 mm 1 mps 741 mmHg 92%
01:00 +15°C° 0 mm 1 mps 740 mmHg 94%
02:00 +15°C° 0 mm 1 mps 740 mmHg 95%
03:00 +15°C° 0 mm 1 mps 740 mmHg 95%
04:00 +15°C° 0 mm 1 mps 740 mmHg 96%
05:00 +15°C° 0 mm 2 mps 740 mmHg 97%
06:00 +17°C° 0 mm 2 mps 739 mmHg 91%
07:00 +18°C° 0 mm 2 mps 739 mmHg 86%
08:00 +20°C° 0 mm 2 mps 739 mmHg 80%
09:00 +21°C° 0.1 mm 2 mps 739 mmHg 77%
10:00 +23°C° 0.1 mm 2 mps 739 mmHg 74%
11:00 +22°C° 0.1 mm 3 mps 739 mmHg 70%
12:00 +24°C° 0.1 mm 3 mps 739 mmHg 67%
13:00 +24°C° 0.1 mm 3 mps 738 mmHg 65%
14:00 +25°C° 0.1 mm 3 mps 738 mmHg 62%
15:00 +24°C° 0 mm 3 mps 738 mmHg 63%
16:00 +24°C° 0 mm 2 mps 738 mmHg 65%
17:00 +24°C° 0 mm 2 mps 738 mmHg 67%
18:00 +21°C° 0 mm 2 mps 738 mmHg 73%
19:00 +20°C° 0 mm 1 mps 738 mmHg 78%
20:00 +18°C° 0 mm 1 mps 738 mmHg 84%
21:00 +18°C° 0 mm 1 mps 738 mmHg 85%
22:00 +16°C° 0 mm 1 mps 738 mmHg 87%
23:00 +16°C° 0 mm 1 mps 738 mmHg 88%

10 August, Monday

Time Temperature Precipitation Wind Pressure Humidity
00:00 +15°C° 0 mm 1 mps 738 mmHg 89%
01:00 +15°C° 0 mm 1 mps 738 mmHg 90%
02:00 +15°C° 0 mm 1 mps 737 mmHg 90%
03:00 +15°C° 0 mm 1 mps 738 mmHg 90%
04:00 +15°C° 0 mm 1 mps 738 mmHg 90%
05:00 +15°C° 0 mm 2 mps 738 mmHg 90%
06:00 +16°C° 0 mm 2 mps 738 mmHg 85%
07:00 +17°C° 0 mm 2 mps 738 mmHg 80%
08:00 +19°C° 0 mm 3 mps 738 mmHg 75%
09:00 +20°C° 0 mm 3 mps 738 mmHg 70%
10:00 +21°C° 0 mm 3 mps 738 mmHg 65%
11:00 +22°C° 0 mm 3 mps 738 mmHg 60%
12:00 +22°C° 0 mm 3 mps 738 mmHg 59%
13:00 +22°C° 0 mm 3 mps 738 mmHg 58%
14:00 +22°C° 0 mm 3 mps 738 mmHg 58%
15:00 +22°C° 0 mm 3 mps 738 mmHg 60%
16:00 +21°C° 0 mm 3 mps 738 mmHg 63%
17:00 +21°C° 0 mm 3 mps 738 mmHg 66%
18:00 +19°C° 0 mm 2 mps 738 mmHg 72%
19:00 +17°C° 0 mm 2 mps 738 mmHg 77%
20:00 +16°C° 0 mm 1 mps 738 mmHg 83%
21:00 +15°C° 0 mm 1 mps 739 mmHg 84%
22:00 +14°C° 0 mm 1 mps 739 mmHg 84%
23:00 +14°C° 0 mm 1 mps 739 mmHg 85%
Show more